[[{"header":{"parameterUnit":"m.s-1","parameterCategory":1,"la1":30.2991,"la2":30.254,"lo1":-89.0895,"lo2":-89.0444,"dy":0.0017,"dx":0.0017,"nx":28,"ny":28,"refTime":"2025-04-01T21:00:00:Z","depth":0,"parameterNumber":2,"parameterNumberName":"U-component_of_WINDS"},"data":[0,0,0,0,0,0,0,0,0,0,0,0,0,0,0,0,0,0,0,0,0,0,0,0,0,0,0,0,0,0,0,0,0,0,0,0,0,0,0,0,0,0,0,0,0,0,0,0,0,0,0,0,0,0,0,0,0,0,-5.6474,-5.6475,0,-5.6525,-5.6525,-5.6526,-5.6498,-5.6496,-5.6495,-5.6494,-5.654,-5.6543,-5.6545,0,0,0,0,0,0,0,0,0,0,0,0,0,-5.6351,-5.6353,-5.6474,-5.6475,-5.6476,-5.6524,-5.6525,-5.6526,-5.6498,-5.6496,-5.6495,-5.6493,-5.6539,-5.6542,-5.6545,0,0,0,0,0,0,0,0,0,0,0,0,0,-5.6403,-5.6354,-5.6474,-5.6468,-5.6468,-5.6524,-5.6525,-5.6526,-5.6498,-5.6496,-5.6494,-5.6492,-5.6538,-5.6542,-5.6546,-5.661,0,0,-5.6557,-5.6559,0,0,0,0,0,0,0,0,-5.64,-5.6407,-5.6468,-5.6468,-5.6468,-5.6503,-5.6499,-5.6554,-5.6499,-5.6486,-5.6494,-5.6491,-5.6529,-5.6534,-5.6547,-5.6613,-5.6614,-5.6558,-5.656,-5.6562,-5.6563,0,0,0,0,0,0,0,-5.6396,-5.6405,-5.6494,-5.6469,-5.6469,-5.6461,-5.6466,-5.6509,-5.6519,-5.6487,-5.6486,-5.6492,-5.6529,-5.6544,-5.6548,-5.6615,-5.6558,-5.6561,-5.6563,-5.6565,-5.6735,-5.6737,0,0,0,0,0,0,-5.6394,-5.6402,-5.6492,-5.6496,-5.6429,-5.6465,-5.6471,-5.6494,-5.6518,-5.652,-5.6494,-5.6491,-5.6538,-5.6544,-5.655,-5.6625,-5.6562,-5.6565,-5.6567,-5.6732,-5.6735,-5.6738,0,0,0,0,0,0,-5.6391,-5.6402,-5.649,-5.6448,-5.6459,-5.6469,-5.6495,-5.6496,-5.6511,-5.6523,-5.6524,-5.6507,-5.6537,-5.6544,-5.6596,-5.6626,-5.6567,-5.657,-5.673,-5.6733,-5.6736,-5.6778,0,0,0,0,0,0,-5.6388,-5.6401,-5.6427,-5.6449,-5.6462,-5.6537,-5.6497,-5.6498,-5.6518,-5.6514,-5.6536,-5.6538,-5.6536,-5.659,-5.6599,-5.6631,-5.6573,-5.6727,-5.6731,-5.6735,-5.6773,-5.6782,-5.6789,0,0,0,0,0,-5.6383,-5.6435,-5.6428,-5.6439,-5.6494,-5.6538,-5.6545,-5.6543,-5.6521,-5.6545,-5.6553,-5.6537,-5.6623,-5.6596,-5.6606,-5.6639,-5.6725,-5.673,-5.6735,-5.677,-5.678,-5.6789,0,0,0,0,0,0,-5.6414,-5.6438,-5.643,-5.6492,-5.6514,-5.6534,-5.6565,-5.6555,-5.6582,-5.6577,-5.6572,-5.6578,-5.663,-5.664,-5.661,-5.6702,-5.667,-5.6677,-5.6693,-5.6703,-5.6711,-5.6706,-5.6576,0,0,0,0,0,-5.6429,-5.6464,-5.6483,-5.6535,-5.6547,-5.6554,-5.6574,-5.6571,-5.6592,-5.6601,-5.6612,-5.6633,-5.6664,-5.6685,-5.6714,-5.6776,-5.6779,-5.6804,-5.6812,-5.6818,-5.6823,-5.6855,-5.6866,-5.6754,-5.6754,-5.6754,0,0,-5.6457,-5.6475,-5.6498,-5.6542,-5.6558,-5.6594,-5.6562,-5.6601,-5.6627,-5.6606,-5.6655,-5.6665,-5.6687,-5.6744,-5.6769,-5.6753,-5.6856,-5.6825,-5.683,-5.6831,-5.6861,-5.6872,-5.6881,-5.6758,-5.6757,-5.6756,0,0,-5.6528,-5.6546,-5.6591,-5.6609,-5.6635,-5.664,-5.6651,-5.6673,-5.6679,-5.6729,-5.6714,-5.6744,-5.6799,-5.6815,-5.683,-5.6909,-5.6894,-5.6919,-5.6959,-5.699,-5.6999,-5.7006,-5.7032,-5.7042,-5.6925,-5.6925,-5.6925,0,-5.656,-5.6614,-5.6615,-5.6655,-5.6674,-5.666,-5.6704,-5.6721,-5.6755,-5.6768,-5.6751,-5.6819,-5.6833,-5.6892,-5.6912,-5.6926,-5.6936,-5.6915,-5.6998,-5.7006,-5.7013,-5.7037,-5.7047,-5.6928,-5.6928,-5.6927,-5.6927,0,-5.6651,-5.6689,-5.6722,-5.6757,-5.678,-5.6822,-5.6828,-5.6851,-5.6847,-5.6854,-5.6904,-5.6921,-5.6953,-5.6968,-5.6963,-5.7026,-5.7016,-5.6999,-5.6965,-5.7026,-5.7048,-5.7058,-5.6932,-5.6931,-5.693,-5.6929,0,0,-5.6739,-5.6775,-5.6787,-5.6802,-5.6831,-5.686,-5.6901,-5.6935,-5.6954,-5.6979,-5.7011,-5.7059,-5.7043,-5.7061,-5.7059,-5.7087,-5.7145,-5.7066,-5.7066,-5.7077,-5.7213,-5.7223,-5.7234,-5.7137,-5.7139,-5.7141,-5.721,0,-5.6809,-5.6883,-5.6885,-5.6951,-5.6986,-5.6974,-5.701,-5.703,-5.7038,-5.7067,-5.7075,-5.7108,-5.7086,-5.7097,-5.7124,-5.7132,-5.7172,-5.7128,-5.7165,-5.7167,-5.7157,-5.7247,-5.7258,-5.7322,-5.7219,-5.7221,-5.7222,0,-5.69,-5.6929,-5.6999,-5.7023,-5.7037,-5.707,-5.71,-5.7129,-5.7152,-5.7156,-5.7177,-5.7171,-5.7211,-5.7181,-5.7236,-5.7206,-5.7222,-5.7228,-5.7231,-5.7231,-5.7195,-5.7246,-5.7343,-5.7352,-5.7237,-5.7235,-5.7234,0,-5.6953,-5.701,-5.7059,-5.7073,-5.7103,-5.7126,-5.7139,-5.7161,-5.718,-5.7207,-5.722,-5.7251,-5.7267,-5.729,-5.7292,-5.727,-5.7347,-5.7317,-5.7349,-5.7349,-5.7363,-5.7361,-5.746,-5.7379,-5.7379,-5.7379,-5.7378,0,-5.7029,-5.7072,-5.7084,-5.7113,-5.7161,-5.7164,-5.721,-5.7221,-5.7241,-5.7271,-5.7264,-5.7292,-5.7295,-5.7324,-5.7326,-5.737,-5.7378,-5.7381,-5.738,-5.7379,-5.7379,-5.7387,-5.7381,-5.7381,-5.7381,-5.738,-5.738,0,-5.7095,-5.7106,-5.7158,-5.7183,-5.719,-5.7223,-5.7244,-5.7272,-5.728,-5.7319,-5.7328,-5.734,-5.7374,-5.738,-5.7419,-5.7421,-5.7473,-5.7469,-5.7465,-5.7463,-5.7494,-5.749,-5.7599,-5.7612,-5.7526,-5.7526,-5.7527,0,-5.7141,-5.7174,-5.7203,-5.7224,-5.7239,-5.7273,-5.7294,-5.7298,-5.732,-5.7349,-5.7373,-5.7407,-5.7434,-5.7489,-5.75,-5.753,-5.7525,-5.7561,-5.7529,-5.7527,-5.7522,-5.7519,-5.7521,-5.7566,-5.7567,-5.7568,-5.7568,0,-5.7221,-5.7225,-5.7256,-5.7289,-5.7315,-5.7341,-5.7365,-5.7382,-5.739,-5.7414,-5.745,-5.7471,-5.7513,-5.7545,-5.7576,-5.7588,-5.7578,-5.7579,-5.7588,-5.7586,-5.7581,-5.7581,-5.7478,-5.7576,-5.7575,-5.7574,-5.7574,-5.7574,-5.7277,-5.7305,-5.733,-5.7365,-5.7384,-5.7408,-5.7435,-5.7447,-5.7477,-5.7512,-5.7513,-5.7552,-5.7574,-5.7614,-5.7629,-5.7658,-5.7646,-5.7659,-5.7661,-5.7664,-5.7665,-5.7579,-5.7664,-5.7663,-5.7663,-5.7663,-5.7663,0,-5.7354,-5.737,-5.7402,-5.7438,-5.7465,-5.7457,-5.7484,-5.7506,-5.7541,-5.7564,-5.7591,-5.7631,-5.7663,-5.7678,-5.771,-5.773,-5.7726,-5.7738,-5.7734,-5.7737,-5.7676,-5.7664,-5.774,-5.774,-5.774,-5.774,-5.774,-5.774,-5.7397,-5.7444,-5.7451,-5.7507,-5.7522,-5.7561,-5.7577,-5.7598,-5.7616,-5.7662,-5.7689,-5.7699,-5.7718,-5.7751,-5.778,-5.7784,-5.7794,-5.7806,-5.7808,-5.7749,-5.7741,-5.7734,-5.7722,-5.781,-5.781,-5.7866,-5.7867,-5.7867]},{"header":{"parameterUnit":"m.s-1","parameterCategory":1,"la1":30.2991,"la2":30.254,"lo1":-89.0895,"lo2":-89.0444,"dy":0.0017,"dx":0.0017,"nx":28,"ny":28,"refTime":"2025-04-01T21:00:00:Z","depth":0,"parameterNumber":3,"parameterNumberName":"V-component_of_WINDS"},"data":[0,0,0,0,0,0,0,0,0,0,0,0,0,0,0,0,0,0,0,0,0,0,0,0,0,0,0,0,0,0,0,0,0,0,0,0,0,0,0,0,0,0,0,0,0,0,0,0,0,0,0,0,0,0,0,0,0,0,4.0917,4.0918,0,4.102,4.1021,4.1022,4.1056,4.1056,4.1055,4.1055,4.1156,4.1159,4.1162,0,0,0,0,0,0,0,0,0,0,0,0,0,4.0748,4.075,4.0917,4.0918,4.0919,4.1019,4.1021,4.1022,4.1056,4.1056,4.1055,4.1055,4.1155,4.1159,4.1162,0,0,0,0,0,0,0,0,0,0,0,0,0,4.0833,4.0751,4.0916,4.0948,4.0952,4.1019,4.1021,4.1023,4.1056,4.1056,4.1055,4.1055,4.1154,4.1158,4.1163,4.1204,0,0,4.1177,4.1179,0,0,0,0,0,0,0,0,4.0828,4.0839,4.0942,4.0946,4.0951,4.1025,4.0998,4.1083,4.1057,4.1017,4.1055,4.1054,4.1113,4.1121,4.1141,4.1209,4.1213,4.1178,4.118,4.1182,4.1184,0,0,0,0,0,0,0,4.0822,4.0835,4.0957,4.0944,4.0949,4.0957,4.0968,4.1015,4.1067,4.102,4.1023,4.1035,4.1115,4.1137,4.1144,4.1215,4.1177,4.1182,4.1184,4.1186,4.1324,4.1325,0,0,0,0,0,0,4.0811,4.0829,4.0954,4.096,4.0887,4.0961,4.0973,4.1001,4.1066,4.1076,4.1035,4.1036,4.1129,4.1138,4.1147,4.1202,4.1182,4.1187,4.1189,4.1323,4.1324,4.1325,0,0,0,0,0,0,4.0807,4.0822,4.095,4.0896,4.0913,4.0964,4.0995,4.1004,4.1026,4.1078,4.1087,4.1048,4.1129,4.1141,4.1191,4.1206,4.1189,4.1193,4.1322,4.1324,4.1325,4.131,0,0,0,0,0,0,4.0802,4.082,4.0837,4.0896,4.0915,4.0992,4.0996,4.1006,4.1034,4.1036,4.1093,4.1101,4.1129,4.1184,4.1195,4.1212,4.1197,4.1321,4.1323,4.1325,4.1309,4.1311,4.1312,0,0,0,0,0,4.0796,4.0827,4.0837,4.0852,4.0937,4.0993,4.1004,4.1037,4.1035,4.1052,4.1086,4.1099,4.1202,4.1189,4.1202,4.122,4.132,4.1322,4.1324,4.1309,4.131,4.1312,0,0,0,0,0,0,4.0766,4.0835,4.0847,4.0898,4.094,4.0999,4.1021,4.1037,4.1078,4.1078,4.1116,4.1129,4.1176,4.1203,4.1186,4.1265,4.1262,4.1267,4.1246,4.1248,4.1249,4.1241,4.12,0,0,0,0,0,4.0765,4.0806,4.0863,4.0903,4.0923,4.0969,4.0994,4.1016,4.106,4.1077,4.1114,4.1155,4.1197,4.1224,4.1265,4.1313,4.1327,4.1333,4.1334,4.1335,4.1338,4.1368,4.1372,4.1332,4.1332,4.1332,0,0,4.0764,4.0807,4.083,4.0898,4.0933,4.0973,4.0983,4.1025,4.1055,4.1083,4.1133,4.1162,4.121,4.1261,4.1284,4.1284,4.1353,4.1337,4.1337,4.1341,4.1371,4.1375,4.1378,4.1333,4.1333,4.1333,0,0,4.0783,4.0819,4.0858,4.0893,4.0946,4.0976,4.0986,4.1043,4.1064,4.1115,4.1138,4.1174,4.1245,4.1279,4.1306,4.1341,4.1355,4.1353,4.1359,4.1388,4.1391,4.1394,4.1408,4.1413,4.1357,4.1357,4.1357,0,4.0775,4.0838,4.0874,4.0917,4.0947,4.0976,4.1015,4.1047,4.111,4.113,4.1129,4.1221,4.1255,4.1315,4.1324,4.1344,4.1356,4.1347,4.1388,4.1391,4.1395,4.1409,4.1414,4.1356,4.1356,4.1356,4.1356,0,4.0826,4.0869,4.0894,4.0957,4.0989,4.1029,4.1072,4.11,4.112,4.1151,4.1204,4.1246,4.1298,4.1314,4.1332,4.1377,4.1375,4.1381,4.1379,4.1398,4.1411,4.1417,4.1355,4.1356,4.1356,4.1356,0,0,4.0827,4.0912,4.0921,4.0951,4.1013,4.1047,4.1089,4.1142,4.1166,4.1209,4.1246,4.1306,4.1313,4.1343,4.1366,4.1391,4.1419,4.1394,4.1396,4.1398,4.1472,4.1469,4.1474,4.1429,4.143,4.1431,4.1469,0,4.0855,4.0933,4.0969,4.103,4.1072,4.1102,4.1138,4.118,4.121,4.1249,4.1282,4.1325,4.133,4.1349,4.1375,4.141,4.1434,4.1407,4.1463,4.1465,4.1451,4.1481,4.1477,4.151,4.1474,4.1475,4.1476,0,4.0898,4.0944,4.1011,4.1071,4.109,4.1122,4.1175,4.1212,4.126,4.128,4.1316,4.1339,4.1384,4.1379,4.1442,4.1423,4.1448,4.1469,4.1471,4.1478,4.1472,4.149,4.1522,4.1527,4.1484,4.1484,4.1483,0,4.0895,4.0973,4.1024,4.1048,4.1119,4.1142,4.1172,4.122,4.125,4.1296,4.1316,4.1365,4.1392,4.1429,4.1465,4.1458,4.1525,4.1523,4.1544,4.1543,4.1557,4.1555,4.1594,4.1571,4.1571,4.1571,4.1571,0,4.0923,4.0963,4.1024,4.1055,4.1101,4.1141,4.1186,4.1218,4.1261,4.1299,4.1326,4.1361,4.1406,4.1446,4.1474,4.1523,4.1535,4.1552,4.1559,4.1551,4.1549,4.1568,4.1567,4.1572,4.1572,4.1572,4.1571,0,4.0926,4.0969,4.1026,4.109,4.1107,4.1138,4.1192,4.1224,4.1256,4.1304,4.1317,4.1367,4.1417,4.1456,4.1519,4.1538,4.1591,4.1598,4.1575,4.1579,4.1598,4.1596,4.1651,4.1661,4.163,4.163,4.163,0,4.0942,4.0974,4.1042,4.107,4.1101,4.1146,4.1178,4.1219,4.1251,4.1311,4.1335,4.1387,4.1431,4.1508,4.155,4.1599,4.1609,4.1625,4.1616,4.1607,4.1611,4.1609,4.1613,4.1626,4.1626,4.1626,4.1626,0,4.0966,4.0986,4.1032,4.1086,4.1124,4.1167,4.1212,4.1233,4.1282,4.1317,4.1369,4.1403,4.147,4.1522,4.1576,4.1606,4.1625,4.1629,4.1636,4.1628,4.1614,4.1624,4.1579,4.1627,4.1627,4.1627,4.1627,4.1627,4.0977,4.1008,4.1061,4.1112,4.115,4.1192,4.1226,4.1264,4.1308,4.1367,4.1389,4.1443,4.1492,4.1568,4.1599,4.1641,4.1643,4.1653,4.1656,4.1658,4.1658,4.1607,4.1651,4.1651,4.1651,4.1651,4.1651,0,4.1003,4.104,4.1086,4.1149,4.1189,4.1205,4.1256,4.1288,4.1336,4.1382,4.1425,4.1486,4.1537,4.1584,4.1637,4.1662,4.1672,4.1675,4.1674,4.1681,4.1653,4.1642,4.1666,4.1666,4.1666,4.1666,4.1666,4.1666,4.1022,4.1076,4.1103,4.1176,4.1213,4.1267,4.1295,4.1334,4.1371,4.1439,4.1482,4.1513,4.156,4.1617,4.1664,4.1677,4.1695,4.1696,4.1711,4.1684,4.1682,4.168,4.167,4.1699,4.17,4.1735,4.1735,4.1735]}]]